#timestamp,LO_Frequency,Hit,StdDev 
1570345235.8,286046998.6,N
1570345255.6,286047002.3,P
1570345275.5,286047004.4,N
1570345295.3,286047001.7,N
1570345315.1,286047003.8,N
1570345335.9,286047004.2,N
1570345355.4,286047004.0,N
1570345375.2,286047001.4,N
1570345395.0,286047006.0,Y
1570345395.9,286047006.0,P
1570345415.8,286047002.2,N
1570345435.6,286046999.7,N
1570345455.5,286046999.8,N
1570345475.3,286047001.1,N
1570345495.1,286046999.0,N
1570345515.9,286046998.4,N
1570345535.7,286046998.9,N
1570345555.5,286046998.7,N
1570345575.4,286047001.2,N
1570345595.2,286047001.0,N
1570345615.1,286046998.1,N
1570345616.0,286046998.1,N
1570345635.8,286046998.5,N
1570345655.6,286046998.4,N
1570345675.5,286047001.2,N
1570345695.8,286047000.5,N
1570345715.7,286046998.6,N
1570345735.5,286047000.2,N
1570345755.3,286047002.8,N
1570345775.2,286047002.5,N
1570345795.0,286047002.2,N
1570345795.9,286047002.2,N
1570345815.8,286047004.3,N
1570345835.6,286047003.8,N
1570345855.4,286047002.4,N
1570345875.3,286047000.9,N
1570345895.1,286046998.1,N
1570345915.8,286046998.8,N
1570345935.7,286046996.9,N
1570345955.5,286046999.2,N
1570345975.4,286046998.3,N
1570345995.2,286047001.1,N
1570346015.0,286047000.3,N
1570346015.9,286047000.3,N
1570346035.8,286047000.5,N
1570346055.6,286047000.4,N
1570346075.4,286047000.3,N
1570346095.3,286047001.0,N
1570346115.1,286047000.9,N
1570346135.9,286046999.9,N
1570346155.7,286046998.6,N
1570346175.5,286046998.7,N
1570346195.4,286046998.3,N
1570346215.2,286047001.2,N
1570346235.1,286047000.5,N
1570346236.0,286047000.5,N
1570346255.8,286046999.8,N
1570346275.6,286047000.1,N
1570346295.5,286046999.9,N
1570346315.3,286047000.8,N
1570346335.1,286047000.4,N
1570346355.9,286046998.3,N
1570346375.7,286046999.4,N
1570346395.6,286046999.1,N
1570346415.4,286046999.0,N
1570346435.2,286046998.3,N
1570346455.1,286047001.0,N
1570346456.0,286047001.0,N
1570346475.8,286047000.1,N
1570346495.0,286047001.6,N
1570346495.9,286047001.6,N
1570346515.8,286047004.4,Y
1570346535.6,286047003.7,P
1570346555.4,286047004.1,N
1570346575.3,286047003.1,N
1570346595.1,286047003.7,N
1570346615.9,286047001.8,N
1570346635.7,286047000.2,N
1570346655.5,286047000.4,N
1570346675.4,286047000.7,N
1570346695.2,286047000.0,N
1570346715.0,286047000.5,N
1570346716.0,286047000.5,N
1570346735.8,286046999.8,N
1570346755.6,286047001.0,N
1570346775.5,286046999.9,N
1570346795.3,286047002.4,N
1570346815.1,286047002.1,N
1570346835.9,286047004.4,Y
1570346855.7,286047002.1,P
1570346875.6,286047002.3,P
1570346895.4,286047002.0,P
1570346915.2,286047002.1,Y
1570346935.1,286047000.3,P
1570346936.0,286047000.3,N
1570346955.8,286047000.1,N
1570346975.7,286047000.5,N
1570346995.5,286046999.9,N
1570347015.3,286047002.8,Y
1570347035.2,286046998.9,P
1570347055.0,286046996.9,P
1570347055.9,286046996.9,N
1570347075.8,286046995.1,Y
1570347095.6,286046999.1,P
1570347115.4,286046998.9,N
1570347135.3,286046998.2,P
1570347155.1,286046998.5,Y
1570347175.8,286047000.2,P
1570347195.7,286047000.1,N
1570347215.5,286046999.7,N
1570347235.4,286047000.1,N
1570347255.2,286047002.7,Y
1570347275.0,286047001.3,P
1570347275.9,286047001.3,N
1570347295.8,286046999.8,N
1570347315.6,286047000.4,N
1570347335.5,286047000.0,N
1570347355.3,286047000.3,N
1570347375.1,286046999.8,N
1570347395.9,286047002.8,Y
1570347415.7,286047002.7,P
1570347435.6,286047002.8,N
1570347455.4,286047000.1,N
1570347475.2,286047001.0,N
1570347495.1,286047001.0,N
1570347496.0,286047001.0,N
1570347515.8,286046999.7,N
1570347535.6,286047001.6,N
1570347555.5,286047004.4,Y
1570347575.3,286047002.2,P
1570347595.2,286047000.5,N
1570347615.9,286047002.0,N
1570347635.7,286047002.0,N
1570347655.6,286047004.4,Y
1570347675.4,286047001.8,P
1570347695.3,286047001.6,P
1570347715.1,286047001.8,P
1570347716.0,286047001.8,Y
1570347735.8,286047000.8,P
1570347755.7,286047000.5,N
1570347775.5,286046998.2,P
1570347795.4,286046998.6,N
1570347815.2,286046999.3,N
1570347835.0,286046997.2,N
1570347835.9,286046997.2,N
1570347855.8,286046997.1,N
1570347875.6,286046994.9,Y
1570347895.5,286046997.9,P
1570347915.3,286046997.1,P
1570347935.4,286046996.5,P
1570347955.2,286046998.7,N
1570347975.0,286046998.2,N
1570347976.0,286046998.2,N
1570347995.8,286046997.3,Y
1570348015.6,286046999.6,P
1570348035.5,286046998.9,N
1570348055.3,286046999.0,N
1570348075.1,286046998.3,N
1570348095.9,286046998.2,Y
1570348115.7,286047002.4,P
1570348135.6,286047002.3,N
1570348155.4,286046998.6,N
1570348175.2,286046998.1,N
1570348195.1,286046998.7,N
1570348196.0,286046998.7,N
1570348215.8,286047000.9,N
1570348235.7,286046999.8,N
1570348255.5,286047000.5,N
1570348275.3,286047000.2,N
1570348295.2,286046999.4,N
1570348315.0,286046999.0,N
1570348315.9,286046999.0,N
1570348335.7,286046996.5,N
1570348355.6,286046999.5,N
1570348375.4,286046998.9,N
1570348395.3,286046998.7,N
1570348415.1,286047000.9,N
1570348416.0,286047000.9,N
1570348435.8,286047000.3,N
1570348455.7,286047001.2,N
1570348475.5,286046996.9,N
1570348495.4,286046996.6,N
1570348515.2,286046995.0,Y
1570348535.0,286046997.3,P
1570348535.9,286046997.3,N
1570348555.8,286046997.3,N
1570348575.6,286046997.2,Y
1570348595.5,286046997.8,P
1570348615.3,286046994.9,P
1570348635.1,286046996.8,N
1570348655.9,286046998.3,N
1570348675.7,286047000.0,N
1570348695.6,286047007.2,Y
1570348715.4,286047013.3,P
1570348735.2,286047014.0,N
1570348755.1,286047009.5,N
1570348756.0,286047009.5,N
1570348775.8,286047008.5,N
1570348795.7,286047008.0,N
